map of YHU home
YHU - Airport
Location
City:  Longueuil, Québec, Canada
Name:Montréal St-Hubert Airport Longueuil
ICAO:CYHU
IATA:YHU

Details
Type:Airport (Airfield)
Use:Public/Civil, International (customs port of entry)
Latitude:45°31'05"N (45.518056)
Longitude:73°25'01"W (-73.416943)
Elevation:90 ft (27 m)
Variation:14.56°W (WMM2015 magnetic declination)
0.07° annual change
Runways:3
Longest:7801 ft (2378 m), paved

Time
Time Zone:UTC-5 (DST-4)
Local Time:

Weather
METAR:CYHU 250100Z AUTO 03014KT OVC006 01/00 A2981 RMK WX MISG VIS MISG PCPN MISG SLP097
TAF:CYHU 242339Z 2500/2524 FCST NOT AVBL DUE SENSORS INOPV
RMK FCST BASED ON AUTO OBS. NXT FCST BY 250600Z

Related Locations
Nearby:
Farthest:MQZ: 11515 mi / 18531 km
Margaret River [Margaret River Airport], WA, AU

Find:

   beyond  
but within

Other Information
Maps:
NOTAMs:
Links:
Sources:

  
flag of Canada
flag of Québec
  

Airport Diagram

Airport diagram for YHU

Airport diagram PDF

Sectional Chart

Flight Planning
at skyvector.com

Satellite Image

Google Maps Satellite view

 

Copyright © 2004-2017 Karl L. Swartz. All rights reserved.
The Great Circle Mapper name and logo are trademarks of the Great Circle Mapper.
All other trademarks mentioned herein belong to their respective owners.
Please see credits for attibutions and further copyright information.

  Follow gcmap on Facebook Follow gcmap on Twitter Follow gcmap on Google+ GCmap on LinkedIn

hCard Microformat

Geo Microformat